{"data":{"norad_id":40272,"intl_designator":"2014-062B","name":"ARSAT 1","alt_names":[],"object_type":"PAYLOAD","status":"ACTIVE","operator":null,"country":"ARGN","launch_date":"2014-10-16","launch_site_code":"FRGUI","launch_vehicle":null,"mission":null,"orbit_class":"UNKNOWN","rcs_meters":85.7424,"size_class":null,"mass_kg":null,"dimensions":null,"purposes":["comms"],"wikipedia_slug":null,"has_3d_model":false,"image_url":null,"decayed_at":null,"tle_current":{"epoch":"2026-05-25T03:55:30.549792Z","epoch_age_seconds":71389,"freshness":"FRESH","line1":"1 40272U 14062B   26145.16354803 -.00000262  00000+0  00000+0 0  9995","line2":"2 40272   0.0491  76.0279 0001826 337.3905 176.4077  1.00271249 42395","mean_motion":1.00271249,"eccentricity":0.0001826,"inclination_deg":0.0491,"raan_deg":76.0279,"arg_perigee_deg":337.3905,"mean_anomaly_deg":176.4077,"bstar":0,"rev_number":4239,"period_min":1436.1045806859,"perigee_km":35779.045914624,"apogee_km":35794.444529611,"semimajor_km":42164.882222117,"source":"CELESTRAK","updated_at":"2026-05-25T13:38:13.952781Z"}}}